[[{"header":{"parameterUnit":"m.s-1","parameterCategory":1,"la1":30.2991,"la2":30.254,"lo1":-89.0895,"lo2":-89.0444,"dy":0.0017,"dx":0.0017,"nx":28,"ny":28,"refTime":"2025-03-19T03:00:00:Z","depth":0,"parameterNumber":2,"parameterNumberName":"U-component_of_WINDS"},"data":[0,0,0,0,0,0,0,0,0,0,0,0,0,0,0,0,0,0,0,0,0,0,0,0,0,0,0,0,0,0,0,0,0,0,0,0,0,0,0,0,0,0,0,0,0,0,0,0,0,0,0,0,0,0,0,0,0,0,1.2597,1.2598,0,1.2635,1.2635,1.2636,1.2621,1.262,1.2619,1.2618,1.2655,1.2657,1.2659,0,0,0,0,0,0,0,0,0,0,0,0,0,1.2509,1.2511,1.2597,1.2598,1.2598,1.2635,1.2636,1.2636,1.2621,1.262,1.2619,1.2618,1.2655,1.2657,1.2659,0,0,0,0,0,0,0,0,0,0,0,0,0,1.2547,1.2511,1.2597,1.2595,1.2595,1.2635,1.2636,1.2636,1.2621,1.262,1.2619,1.2617,1.2654,1.2656,1.2659,1.2702,0,0,1.2667,1.2669,0,0,0,0,0,0,0,0,1.2545,1.255,1.2595,1.2595,1.2596,1.2622,1.2618,1.2658,1.2622,1.2611,1.2618,1.2617,1.2645,1.2648,1.2658,1.2704,1.2705,1.2668,1.2669,1.267,1.2671,0,0,0,0,0,0,0,1.2542,1.2549,1.2612,1.2596,1.2596,1.2591,1.2595,1.2625,1.2635,1.2612,1.2611,1.2616,1.2645,1.2656,1.2659,1.2706,1.2668,1.267,1.2672,1.2673,1.2786,1.2787,0,0,0,0,0,0,1.254,1.2547,1.2611,1.2613,1.2567,1.2594,1.2599,1.2615,1.2635,1.2637,1.2617,1.2615,1.2652,1.2656,1.266,1.271,1.267,1.2673,1.2674,1.2785,1.2786,1.2788,0,0,0,0,0,0,1.2538,1.2546,1.2609,1.258,1.2587,1.2597,1.2615,1.2616,1.2627,1.2638,1.264,1.2627,1.2651,1.2656,1.2691,1.2711,1.2674,1.2677,1.2783,1.2785,1.2787,1.2812,0,0,0,0,0,0,1.2536,1.2545,1.2563,1.258,1.2589,1.2641,1.2617,1.2618,1.2632,1.263,1.2648,1.2649,1.265,1.2687,1.2694,1.2714,1.2679,1.2781,1.2784,1.2787,1.2809,1.2814,1.2819,0,0,0,0,0,1.2533,1.2568,1.2564,1.2572,1.2611,1.2642,1.2647,1.2648,1.2634,1.265,1.2657,1.2649,1.2708,1.2691,1.2699,1.272,1.278,1.2783,1.2786,1.2807,1.2813,1.2819,0,0,0,0,0,0,1.2553,1.2571,1.2566,1.2608,1.2624,1.264,1.2661,1.2655,1.2675,1.2672,1.2672,1.2676,1.2711,1.2719,1.27,1.2761,1.2742,1.2747,1.2755,1.2761,1.2766,1.2763,1.2681,0,0,0,0,0,1.2562,1.2587,1.2601,1.2637,1.2645,1.2652,1.2665,1.2664,1.268,1.2687,1.2696,1.2711,1.2733,1.2748,1.2769,1.281,1.2813,1.2828,1.2833,1.2837,1.2841,1.2861,1.2868,1.2798,1.2798,1.2798,0,0,1.2582,1.2594,1.261,1.2641,1.2653,1.2677,1.2657,1.2684,1.2702,1.2691,1.2724,1.2731,1.2748,1.2786,1.2803,1.2794,1.2861,1.2841,1.2844,1.2846,1.2865,1.2872,1.2878,1.28,1.28,1.28,0,0,1.2629,1.2642,1.2673,1.2685,1.2703,1.2707,1.2715,1.2731,1.2736,1.2769,1.2761,1.2781,1.2819,1.2831,1.2842,1.2892,1.2884,1.2899,1.2924,1.2944,1.2949,1.2954,1.2971,1.2977,1.2903,1.2903,1.2903,0,1.2651,1.2688,1.2689,1.2716,1.2729,1.272,1.275,1.2762,1.2786,1.2795,1.2784,1.283,1.2841,1.2881,1.2893,1.2902,1.2909,1.2897,1.2949,1.2954,1.2958,1.2974,1.298,1.2905,1.2904,1.2904,1.2904,0,1.2713,1.2739,1.2761,1.2784,1.28,1.2828,1.2832,1.2848,1.2845,1.285,1.2883,1.2895,1.2918,1.2927,1.2925,1.2966,1.2959,1.2949,1.2929,1.2966,1.2981,1.2987,1.2907,1.2906,1.2906,1.2905,0,0,1.2775,1.2797,1.2805,1.2815,1.2834,1.2853,1.288,1.2902,1.2915,1.2932,1.2953,1.2985,1.2975,1.2987,1.2986,1.3004,1.3041,1.2991,1.2991,1.2998,1.3084,1.3091,1.3098,1.3036,1.3037,1.3038,1.3082,0,1.2823,1.2871,1.2872,1.2916,1.2938,1.2929,1.2953,1.2966,1.2971,1.299,1.2995,1.3017,1.3003,1.301,1.3027,1.3033,1.3058,1.303,1.3054,1.3055,1.3049,1.3106,1.3113,1.3155,1.3088,1.3089,1.309,0,1.2886,1.2904,1.295,1.2964,1.2973,1.2994,1.3013,1.3032,1.3046,1.3048,1.3062,1.3058,1.3084,1.3064,1.3099,1.3079,1.309,1.3094,1.3095,1.3097,1.3074,1.3107,1.3168,1.3173,1.3099,1.3098,1.3097,0,1.2924,1.296,1.2992,1.3,1.3018,1.3032,1.304,1.3053,1.3066,1.3082,1.309,1.311,1.312,1.3135,1.3135,1.3121,1.317,1.315,1.3171,1.3171,1.3181,1.318,1.3243,1.319,1.319,1.319,1.3189,0,1.2976,1.3005,1.3009,1.3028,1.3059,1.3059,1.3088,1.3095,1.3106,1.3126,1.3119,1.3138,1.3138,1.3156,1.3157,1.3185,1.319,1.3191,1.3191,1.3191,1.3191,1.3197,1.3193,1.3191,1.3191,1.3191,1.319,0,1.3024,1.3028,1.3062,1.3075,1.3079,1.3101,1.3112,1.313,1.3133,1.3158,1.3164,1.3169,1.319,1.3193,1.3217,1.3217,1.325,1.3248,1.3246,1.3245,1.3265,1.3262,1.3332,1.3341,1.3284,1.3284,1.3285,0,1.3057,1.3078,1.3094,1.3106,1.3115,1.3135,1.3148,1.3148,1.3161,1.3178,1.3194,1.3214,1.323,1.3264,1.3269,1.3288,1.3284,1.3308,1.3287,1.3286,1.3283,1.3281,1.3282,1.3311,1.3312,1.3313,1.3313,0,1.3114,1.3115,1.3133,1.3152,1.3167,1.3182,1.3196,1.3207,1.3209,1.3224,1.3245,1.3257,1.3282,1.3302,1.3319,1.3326,1.3319,1.3319,1.3325,1.3325,1.3322,1.3322,1.3255,1.3318,1.3317,1.3317,1.3317,1.3316,1.3154,1.3172,1.3185,1.3205,1.3216,1.3229,1.3245,1.3251,1.3269,1.3289,1.3288,1.3311,1.3323,1.3346,1.3354,1.3371,1.3363,1.3372,1.3373,1.3375,1.3376,1.332,1.3375,1.3374,1.3374,1.3374,1.3374,0,1.3209,1.3217,1.3236,1.3255,1.3271,1.3264,1.3278,1.3292,1.3312,1.3324,1.334,1.3364,1.3382,1.3389,1.3407,1.3419,1.3416,1.3424,1.3422,1.3423,1.3383,1.3376,1.3426,1.3426,1.3426,1.3426,1.3426,1.3426,1.324,1.3269,1.3271,1.3304,1.3311,1.3334,1.3343,1.3354,1.3363,1.339,1.3405,1.341,1.3419,1.3438,1.3454,1.3455,1.3461,1.347,1.347,1.3432,1.3427,1.3422,1.3415,1.3471,1.3471,1.3508,1.3508,1.3509]},{"header":{"parameterUnit":"m.s-1","parameterCategory":1,"la1":30.2991,"la2":30.254,"lo1":-89.0895,"lo2":-89.0444,"dy":0.0017,"dx":0.0017,"nx":28,"ny":28,"refTime":"2025-03-19T03:00:00:Z","depth":0,"parameterNumber":3,"parameterNumberName":"V-component_of_WINDS"},"data":[0,0,0,0,0,0,0,0,0,0,0,0,0,0,0,0,0,0,0,0,0,0,0,0,0,0,0,0,0,0,0,0,0,0,0,0,0,0,0,0,0,0,0,0,0,0,0,0,0,0,0,0,0,0,0,0,0,0,7.4007,7.4009,0,7.415,7.4152,7.4154,7.4092,7.4089,7.4085,7.4082,7.4225,7.4232,7.4239,0,0,0,0,0,0,0,0,0,0,0,0,0,7.3678,7.3684,7.4007,7.4009,7.4011,7.415,7.4152,7.4154,7.4093,7.4088,7.4084,7.408,7.4223,7.4231,7.424,0,0,0,0,0,0,0,0,0,0,0,0,0,7.3821,7.3686,7.4007,7.3997,7.3998,7.415,7.4152,7.4154,7.4094,7.4088,7.4083,7.4078,7.422,7.423,7.4241,7.441,0,0,7.4273,7.4278,0,0,0,0,0,0,0,0,7.3813,7.3833,7.3997,7.3998,7.3999,7.4098,7.4088,7.424,7.4095,7.4057,7.4082,7.4076,7.4187,7.42,7.4238,7.4416,7.4423,7.4274,7.428,7.4285,7.4288,0,0,0,0,0,0,0,7.3803,7.3826,7.4064,7.3999,7.4001,7.3984,7.3999,7.4117,7.4149,7.406,7.4056,7.4074,7.4186,7.4228,7.4241,7.4425,7.4274,7.4283,7.4289,7.4294,7.4748,7.4754,0,0,0,0,0,0,7.3793,7.3818,7.4059,7.4068,7.3891,7.3995,7.4011,7.4071,7.4148,7.4154,7.4078,7.407,7.4212,7.4229,7.4246,7.4448,7.4285,7.4295,7.4301,7.4743,7.475,7.4756,0,0,0,0,0,0,7.3786,7.3815,7.4053,7.3942,7.3971,7.4006,7.4074,7.4077,7.4118,7.4162,7.4167,7.4115,7.4209,7.4231,7.4369,7.4452,7.4299,7.4309,7.4736,7.4745,7.4753,7.4855,0,0,0,0,0,0,7.3777,7.3813,7.3879,7.3944,7.3978,7.4176,7.4079,7.4084,7.4137,7.4129,7.4197,7.4204,7.4207,7.4354,7.438,7.4464,7.4317,7.4729,7.474,7.475,7.4844,7.4866,7.4884,0,0,0,0,0,7.3766,7.3901,7.3882,7.3912,7.406,7.4181,7.42,7.4201,7.4144,7.421,7.4237,7.4201,7.4439,7.4369,7.4397,7.4486,7.4723,7.4737,7.4749,7.4835,7.4861,7.4884,0,0,0,0,0,0,7.3843,7.3909,7.3889,7.405,7.4111,7.417,7.4253,7.4229,7.4306,7.4295,7.4293,7.4309,7.4452,7.4483,7.4403,7.4653,7.4572,7.4592,7.4628,7.4653,7.4673,7.4662,7.4326,0,0,0,0,0,7.3879,7.3973,7.4025,7.4162,7.4193,7.4218,7.4271,7.4267,7.4329,7.4354,7.4392,7.4452,7.454,7.4599,7.4682,7.4848,7.4862,7.4923,7.4943,7.496,7.4976,7.5066,7.5093,7.4798,7.4798,7.4798,0,0,7.3954,7.4002,7.4061,7.4179,7.4225,7.4321,7.424,7.4345,7.4416,7.4369,7.4503,7.4533,7.46,7.4754,7.4823,7.4784,7.5061,7.4976,7.4989,7.4996,7.5082,7.511,7.5134,7.4807,7.4806,7.4804,0,0,7.4139,7.4185,7.4304,7.4352,7.4424,7.444,7.4468,7.4533,7.4551,7.4685,7.4652,7.4736,7.4888,7.4938,7.4983,7.5187,7.5157,7.5214,7.5319,7.5406,7.543,7.545,7.5522,7.5549,7.5231,7.5231,7.5231,0,7.4222,7.4367,7.4367,7.4476,7.4528,7.4492,7.4612,7.4658,7.4753,7.479,7.4745,7.4935,7.4978,7.5142,7.5192,7.523,7.5262,7.5206,7.5426,7.5447,7.5466,7.5535,7.5562,7.5238,7.5237,7.5236,7.5236,0,7.4466,7.4567,7.4654,7.4748,7.481,7.4923,7.494,7.5003,7.4994,7.5014,7.5151,7.5201,7.5294,7.5333,7.5325,7.5496,7.5469,7.5426,7.5344,7.5501,7.5565,7.5592,7.5247,7.5245,7.5243,7.5241,0,0,7.4703,7.4796,7.4828,7.487,7.4947,7.5024,7.5136,7.5228,7.5282,7.5348,7.5441,7.5571,7.5531,7.5583,7.5579,7.5656,7.5814,7.5603,7.5605,7.564,7.6006,7.6037,7.6068,7.5795,7.58,7.5804,7.6,0,7.4893,7.509,7.5094,7.5273,7.5366,7.5333,7.543,7.5487,7.5509,7.559,7.5613,7.5706,7.5647,7.5677,7.5752,7.578,7.5888,7.5766,7.588,7.5884,7.5864,7.6102,7.6136,7.6318,7.6025,7.6029,7.6032,0,7.5141,7.5217,7.5407,7.547,7.5509,7.5597,7.5681,7.576,7.5823,7.5834,7.5892,7.5877,7.599,7.5906,7.606,7.5977,7.6024,7.6045,7.6052,7.6062,7.5967,7.6118,7.6376,7.6403,7.6072,7.6069,7.6066,0,7.5294,7.5444,7.5577,7.5614,7.5691,7.5753,7.5788,7.5847,7.5902,7.5976,7.6012,7.6097,7.6144,7.621,7.6219,7.6157,7.6374,7.6291,7.6385,7.6385,7.6431,7.6428,7.67,7.6463,7.6463,7.6462,7.6462,0,7.5506,7.5623,7.5647,7.5728,7.5858,7.5861,7.5989,7.6019,7.6072,7.6157,7.6134,7.6215,7.6222,7.6305,7.6312,7.6439,7.646,7.6471,7.6471,7.6473,7.6471,7.6503,7.649,7.647,7.6468,7.6467,7.6465,0,7.5698,7.5719,7.5862,7.5924,7.5942,7.6035,7.6088,7.6165,7.6185,7.6294,7.6319,7.635,7.6447,7.6463,7.6576,7.658,7.6732,7.672,7.6711,7.6709,7.6802,7.6793,7.7103,7.7144,7.6881,7.6884,7.6886,0,7.5832,7.5921,7.5994,7.605,7.6089,7.618,7.6236,7.6243,7.6302,7.6382,7.645,7.6544,7.662,7.6775,7.6807,7.6893,7.6882,7.6985,7.6895,7.6894,7.6883,7.6878,7.6886,7.7002,7.7005,7.7008,7.7009,0,7.6066,7.6072,7.6155,7.6243,7.6311,7.638,7.6444,7.6491,7.6506,7.6574,7.6673,7.6732,7.6848,7.6942,7.7028,7.7062,7.7039,7.7038,7.7064,7.7066,7.7057,7.7062,7.6757,7.703,7.7028,7.7027,7.7026,7.7025,7.6233,7.6311,7.6374,7.6467,7.6517,7.6578,7.6654,7.6684,7.6767,7.6863,7.6861,7.697,7.703,7.7144,7.7184,7.7268,7.7235,7.7273,7.7283,7.7292,7.73,7.7044,7.7284,7.7283,7.7283,7.7282,7.7282,0,7.6465,7.6504,7.659,7.6682,7.6756,7.6728,7.6799,7.6861,7.6957,7.7017,7.7092,7.7206,7.7297,7.7336,7.7425,7.7485,7.7477,7.7508,7.7503,7.7512,7.7326,7.7294,7.7514,7.7514,7.7514,7.7514,7.7514,7.7514,7.6595,7.6725,7.6739,7.6893,7.6931,7.7038,7.7081,7.7136,7.7184,7.7312,7.7388,7.7414,7.7465,7.7558,7.764,7.7649,7.7682,7.7719,7.7723,7.7548,7.7525,7.7502,7.7472,7.7727,7.7727,7.7902,7.7904,7.7905]}]]